Location: Huntsville
(41.2590°N, 111.7678°W)
Time: 06:17:57
(UTC+00:00)

SR - Pass Details

Date: 19 June 2021
Orbit: 577 x 878 km, 66.7° (Epoch: 26 July)

Event Time Altitude Azimuth Distance (km) Brightness Sun altitude
Rises 07:43:06 0° 338° (NNW) 3,318 ? -25.2°
Reaches altitude 10° 07:46:07 10° 353° (N) 2,331 ? -25.2°
Maximum altitude 07:50:19 23° 45° (NE) 1,534 ? -25.1°
Drops below altitude 10° 07:54:14 10° 98° (E) 2,160 ? -25.0°
Enters shadow 07:54:53 - 102° (ESE) 2,354 ? -25.0°
